Home > Weather > Victoria > Past weeks

Flag for Canada Past Weather in Victoria, British Columbia, Canada — Yesterday and Last 2 Weeks

Now
59 °F

Passing clouds.


Feels Like: 59 °F
Forecast: 59 / 74 °F
Wind: No wind

Location: Victoria Int. Airportb. C.

Current Time: Jul 28, 2016 at 7:38:20 AM

Latest Report: Jul 28, 2016 at 7:00 AM


Visibility: 30 mi

Pressure: 30.13 "Hg

Humidity: 88%

Dew Point: 55 °F

Location of VictoriaLocation

Past Weather in Victoria — Graph

°F

Victoria Temperature Yesterday

Maximum temperature yesterday: 77 °F (at 3:00 PM)
Minimum temperature yesterday: 54 °F (at 4:00 AM)
Average temperature yesterday: 65 °F

High & Low Weather Summary for the Past Weeks

 TemperatureHumidityPressure
High79 °F (Jul 21, 3:00 PM)94% (Jul 14, 5:00 AM)30.25 "Hg (Jul 14, 5:00 AM)
Low54 °F (Jul 14, 5:00 AM)39% (Jul 22, 1:00 PM)29.89 "Hg (Jul 17, 7:00 PM)
Average65 °F69%30.09 "Hg
* Reported Jul 13 6:00 AM — Jul 28 6:00 AM, Victoria, Weather by CustomWeather, © 2016

Note: Actual official high and low records may vary slightly from our data, if they occured in-between our weather recording intervals... More about our weather records

Advertising

Victoria Weather History for the Previous 24 Hours

Scroll right to see more
 ConditionsComfort  
Time TempWeatherWind HumidityBarometerVisibility
6:00 AM
Thu, Jul 28
54 °FPassing clouds.2 mph94%30.12 "Hg30 mi
5:00 AM55 °FClear.3 mph94%30.11 "Hg30 mi
4:00 AM57 °FClear.No wind88%30.11 "Hg30 mi
3:00 AM57 °FClear.2 mph82%30.10 "Hg30 mi
2:00 AM57 °FClear.5 mph82%30.10 "Hg30 mi
1:00 AM57 °FClear.5 mph88%30.10 "Hg30 mi
12:00 AM57 °FClear.5 mph88%30.10 "Hg30 mi
11:00 PM
Wed, Jul 27
57 °FPassing clouds.3 mph88%30.09 "Hg30 mi
10:00 PM59 °FPassing clouds.No wind82%30.08 "Hg30 mi
9:00 PM64 °FPassing clouds.3 mph68%30.07 "Hg30 mi
8:00 PM72 °FPassing clouds.3 mph57%30.06 "Hg30 mi
7:00 PM72 °FPassing clouds.7 mph57%30.06 "Hg30 mi
6:00 PM73 °FPassing clouds.8 mph57%30.07 "Hg30 mi
5:00 PM77 °FScattered clouds.8 mph54%30.08 "Hg30 mi
4:00 PM75 °FScattered clouds.7 mph54%30.09 "Hg30 mi
3:00 PM77 °FPassing clouds.6 mph54%30.10 "Hg30 mi
2:00 PM75 °FPassing clouds.7 mph57%30.12 "Hg30 mi
1:00 PM73 °FPassing clouds.6 mph61%30.13 "Hg30 mi
12:00 PM72 °FPassing clouds.7 mph61%30.14 "Hg30 mi
11:00 AM72 °FSunny.6 mph61%30.14 "Hg30 mi
10:00 AM70 °FPassing clouds.5 mph60%30.14 "Hg30 mi
9:00 AM70 °FPassing clouds.3 mph64%30.15 "Hg30 mi
8:00 AM64 °FPassing clouds.2 mph78%30.14 "Hg30 mi
7:00 AM57 °FPassing clouds.No wind88%30.14 "Hg30 mi
Weather by CustomWeather, © 2016

See weather overviewHow to use our weather pages